TimeEDT,TemperatureF,Dew PointF,Humidity,Sea Level PressureIn,VisibilityMPH,Wind Direction,Wind SpeedMPH,Gust SpeedMPH,PrecipitationIn,Events,Conditions,WindDirDegrees,DateUTC
12:15 AM,53.6,33.8,47,29.79,10.0,WSW,6.9,-,N/A,,Clear,240,2011-10-18 04:15:00
12:35 AM,53.6,33.8,47,29.79,10.0,WSW,4.6,-,N/A,,Clear,250,2011-10-18 04:35:00
1:15 AM,53.6,33.8,47,29.79,10.0,West,4.6,-,N/A,,Clear,270,2011-10-18 05:15:00
1:35 AM,51.8,33.8,50,29.79,10.0,WSW,3.5,-,N/A,,Clear,250,2011-10-18 05:35:00
1:55 AM,51.8,33.8,50,29.80,10.0,WSW,4.6,-,N/A,,Clear,250,2011-10-18 05:55:00
2:15 AM,51.8,32.0,47,29.80,10.0,West,4.6,-,N/A,,Clear,260,2011-10-18 06:15:00
2:35 AM,53.6,32.0,44,29.80,10.0,WNW,4.6,-,N/A,,Clear,290,2011-10-18 06:35:00
2:55 AM,53.6,32.0,44,29.79,10.0,West,4.6,-,N/A,,Clear,280,2011-10-18 06:55:00
3:15 AM,51.8,30.2,44,29.80,10.0,West,4.6,-,N/A,,Clear,260,2011-10-18 07:15:00
3:55 AM,50.0,30.2,47,29.80,10.0,WSW,3.5,-,N/A,,Clear,240,2011-10-18 07:55:00
4:35 AM,51.8,30.2,44,29.81,10.0,West,3.5,-,N/A,,Partly Cloudy,260,2011-10-18 08:35:00
4:55 AM,51.8,30.2,44,29.81,10.0,Calm,Calm,-,N/A,,Clear,0,2011-10-18 08:55:00
5:15 AM,51.8,30.2,44,29.83,10.0,Calm,Calm,-,N/A,,Clear,0,2011-10-18 09:15:00
5:35 AM,48.2,30.2,50,29.83,10.0,Calm,Calm,-,N/A,,Clear,0,2011-10-18 09:35:00
5:55 AM,48.2,33.8,58,29.83,10.0,Calm,Calm,-,N/A,,Clear,0,2011-10-18 09:55:00
6:45 AM,51.8,30.2,44,29.85,10.0,West,3.5,-,N/A,,Overcast,270,2011-10-18 10:45:00
7:45 AM,48.2,35.6,62,29.86,10.0,Variable,3.5,-,N/A,,Overcast,0,2011-10-18 11:45:00
8:45 AM,50.0,35.6,58,29.89,10.0,SSW,3.5,-,N/A,,Overcast,200,2011-10-18 12:45:00
9:45 AM,51.8,35.6,54,29.89,10.0,SSW,4.6,-,N/A,,Overcast,200,2011-10-18 13:45:00
10:45 AM,55.4,35.6,47,29.90,10.0,WSW,5.8,-,N/A,,Mostly Cloudy,250,2011-10-18 14:45:00
11:45 AM,60.8,35.6,39,29.91,10.0,WSW,5.8,-,N/A,,Mostly Cloudy,240,2011-10-18 15:45:00
12:45 PM,62.6,37.4,39,29.89,10.0,WNW,6.9,-,N/A,,Partly Cloudy,300,2011-10-18 16:45:00
1:45 PM,64.4,37.4,37,29.87,10.0,Variable,4.6,-,N/A,,Clear,0,2011-10-18 17:45:00
3:45 PM,66.2,35.6,32,29.87,10.0,Variable,5.8,-,N/A,,Clear,0,2011-10-18 19:45:00
4:55 PM,64.4,41.0,42,29.89,10.0,SSE,8.1,-,N/A,,Clear,160,2011-10-18 20:55:00
5:45 PM,60.8,39.2,45,29.90,10.0,South,5.8,-,N/A,,Clear,170,2011-10-18 21:45:00
6:45 PM,55.4,41.0,58,29.90,10.0,South,5.8,-,N/A,,Clear,180,2011-10-18 22:45:00
7:45 PM,53.6,39.2,58,29.91,10.0,South,5.8,-,N/A,,Clear,180,2011-10-18 23:45:00
9:15 PM,53.6,42.8,67,29.93,10.0,SSE,3.5,-,N/A,,Clear,160,2011-10-19 01:15:00
9:35 PM,53.6,44.6,72,29.94,10.0,SSE,3.5,-,N/A,,Scattered Clouds,150,2011-10-19 01:35:00
9:55 PM,53.6,44.6,72,29.95,10.0,SE,3.5,-,N/A,,Mostly Cloudy,140,2011-10-19 01:55:00
10:15 PM,51.8,42.8,71,29.93,10.0,East,3.5,-,N/A,,Mostly Cloudy,100,2011-10-19 02:15:00
10:35 PM,53.6,44.6,72,29.95,10.0,ESE,3.5,-,N/A,,Clear,120,2011-10-19 02:35:00
10:55 PM,51.8,44.6,76,29.95,10.0,Calm,Calm,-,N/A,,Partly Cloudy,0,2011-10-19 02:55:00
11:15 PM,53.6,44.6,72,29.94,10.0,ESE,3.5,-,N/A,,Partly Cloudy,120,2011-10-19 03:15:00
11:35 PM,53.6,44.6,72,29.94,10.0,Calm,Calm,-,N/A,,Clear,0,2011-10-19 03:35:00
11:55 PM,53.6,44.6,72,29.94,10.0,Calm,Calm,-,N/A,,Partly Cloudy,0,2011-10-19 03:55:00